This demonstration page uses our WeatherBlox Daily Observations layout. Learn more.

39.92423, -83.80882

Hourly Observations for August 9, 2018

Temp ( °F °C ) Dew Point ( °F °C ) Humidity (%) Winds ( mph kmh ) Pressure ( in mb ) Visibility ( mi km ) Precip ( " mm )
12:56 am 00:56 Clear 67 19.4 67 19.4 100 100 SW 6 9 29.96 1014 10 16.0934 0 0
1:56 am 01:56 Clear 66 18.9 66 18.9 100 100 WSW 5 7 29.97 1015 7 11.26538 0 0
2:56 am 02:56 Mostly Clear with Mist and Fog 65 18.3 65 18.3 100 100 WSW 6 9 29.96 1015 6 9.65604 0 0
3:56 am 03:56 Mostly Clear with Mist and Fog 65 18.3 65 18.3 100 100 W 5 7 29.96 1014 5 8.0467 0 0
4:56 am 04:56 Mostly Clear with Mist and Fog 65 18.3 65 18.3 100 100 WSW 5 7 29.96 1014 3 4.82802 0 0
5:09 am 05:09 Mostly Clear with Mist and Fog 64 18 64 18 100 100 SW 5 7 29.94 1014 2.5 4.02335 0 0
5:56 am 05:56 Mostly Clear with Mist and Fog 65 18.3 65 18.3 100 100 SW 6 9 29.96 1015 2.5 4.02335 0 0
6:21 am 06:21 Mostly Clear with Mist and Fog 63 17 63 17 100 100 WSW 6 9 29.97 1015 1.75 2.816345 0 0
6:30 am 06:30 Mostly Clear with Mist and Fog 63 17 63 17 100 100 SSW 5 7 30 1016 1 1.60934 0 0
6:40 am 06:40 Mostly Clear with Mist and Fog 63 17 63 17 100 100 SW 3 6 30 1016 1.25 2.011675 0 0
6:47 am 06:47 Partly Cloudy with Fog 63 17 63 17 100 100 W 5 7 30 1016 0.25 0.402335 0 0
6:56 am 06:56 Partly Cloudy with Fog 63 17.2 63 17.2 100 100 WSW 5 7 29.98 1015 0.5 0.80467 0 0
6:58 am 06:58 Partly Cloudy with Mist and Fog 63 17 63 17 100 100 WSW 5 7 30 1016 1 1.60934 0 0
7:05 am 07:05 Partly Cloudy with Fog 63 17 63 17 100 100 Calm 30 1016 0.5 0.80467 0 0
7:12 am 07:12 Partly Cloudy with Fog 63 17 63 17 100 100 WSW 3 6 30 1016 0.25 0.402335 0 0
7:29 am 07:29 Partly Cloudy with Mist and Fog 64 18 64 18 100 100 SW 5 7 29.97 1015 0.75 1.207005 0 0
7:39 am 07:39 Partly Cloudy with Mist and Fog 64 18 64 18 100 100 W 3 6 29.97 1015 1 1.60934 0 0
7:46 am 07:46 Partly Cloudy with Mist and Fog 64 18 64 18 100 100 WSW 3 6 29.97 1015 1.5 2.41401 0 0
7:56 am 07:56 Partly Cloudy with Mist and Fog 66 18.9 66 18.9 100 100 Calm 30.01 1016 2 3.21868 0 0
8:13 am 08:13 Partly Cloudy with Mist and Fog 68 20 68 20 100 100 WNW 7 11 30 1016 3 4.82802 0.01 0.254
8:56 am 08:56 Partly Cloudy with Mist and Fog 71 21.7 69 20.6 94 94 NW 8 13 30 1016 6 9.65604 0.01 0.254
9:56 am 09:56 Sunny 74 23.3 67 19.4 79 79 WNW 7 11 29.99 1016 10 16.0934 0 0
11:56 am 11:56 Sunny 78 25.6 65 18.3 64 64 VRB 3 6 30.01 1016 10 16.0934 0 0
12:56 pm 12:56 Sunny 79 26.1 66 18.9 65 65 VRB 3 6 30.01 1016 10 16.0934 0 0
1:56 pm 13:56 Sunny 81 27.2 65 18.3 58 58 WNW 8 13 30 1016 10 16.0934 0 0
2:56 pm 14:56 Sunny 83 28.3 67 19.4 59 59 W 9 15 29.98 1015 10 16.0934 0 0
3:56 pm 15:56 Sunny 83 28.3 67 19.4 59 59 W 9 15 29.96 1015 10 16.0934 0 0
4:56 pm 16:56 Sunny 82 27.8 66 18.9 58 58 W 9 15 29.95 1014 10 16.0934 0 0
5:56 pm 17:56 Sunny 81 27.2 67 19.4 62 62 WSW 8 13 29.95 1014 10 16.0934 0 0
6:56 pm 18:56 Sunny 80 26.7 70 21.1 71 71 W 5 7 29.94 1014 10 16.0934 0 0
7:56 pm 19:56 Sunny 77 25 70 21.1 79 79 WSW 6 9 29.95 1014 10 16.0934 0 0
8:56 pm 20:56 Clear 73 22.8 69 20.6 87 87 SW 5 7 29.96 1015 10 16.0934 0 0
9:56 pm 21:56 Clear 71 21.7 68 20 90 90 SW 5 7 29.99 1016 10 16.0934 0 0
10:56 pm 22:56 Clear 69 20.6 68 20 96 96 W 5 7 29.99 1016 10 16.0934 0 0
11:56 pm 23:56 Clear 69 20.6 67 19.4 93 93 WSW 6 9 29.98 1015 10 16.0934 0 0

Powered by AerisWeather